Lid_Strength_Index
6 5 4 3 2 1 1 0 0 0 -0 -0 -1 -1 -1 -1 -1 0 1 -0 3 6 6 4 4 7 7 7 10 8 9 9 10 12 13 13 15 14 15 13 13 14 15 15 14 16 16 7 8 11 9 8 6 6
6 5 4 3 2 1 1 1 1 1 0 -0 -1 -1 -1 -1 -1 -1 3 0 -0 4 5 3 3 2 3 4 6 7 8 8 8 11 11 11 13 12 14 17 11 15 13 15 14 12 8 7 7 6 6 6 6 6
6 5 4 4 3 2 1 1 1 1 0 -0 -1 -1 -1 -0 -1 -1 2 1 2 5 5 5 5 2 1 2 2 8 7 6 7 6 9 10 13 11 15 15 14 11 10 12 12 10 9 7 7 7 5 6 6 5
6 5 4 4 3 2 1 1 1 1 0 -0 -0 -1 -1 -1 -1 -1 2 1 2 4 8 7 1 3 1 1 2 3 4 4 5 6 9 10 12 8 12 12 13 12 11 11 11 10 9 8 8 7 6 6 5 5
7 6 5 4 3 3 2 1 1 1 1 -0 -1 -1 -1 -0 -0 -0 1 0 0 5 9 7 4 2 2 2 3 3 4 5 6 8 9 10 8 9 9 11 13 10 12 12 13 10 10 10 9 7 6 6 6 5
7 6 5 4 4 3 2 1 1 1 0 -0 -1 -1 -1 -0 -1 1 4 1 -0 1 6 10 4 4 3 3 3 4 4 5 6 8 8 7 6 9 12 12 10 8 8 8 11 8 8 8 7 7 8 5 5 5
7 6 6 4 4 3 2 1 1 1 0 -0 -0 -0 -1 -1 1 3 5 2 1 1 6 9 9 4 3 4 5 5 4 5 6 7 8 8 8 8 10 12 8 9 8 8 8 8 9 8 9 8 8 4 5 4
7 7 6 5 4 4 2 1 1 1 1 0 -0 -0 -1 0 1 3 1 -0 1 3 4 10 10 8 4 7 8 5 7 6 7 7 7 8 8 8 11 9 8 7 9 8 8 7 7 8 8 8 8 7 5 6
7 7 6 5 5 4 3 2 1 1 1 0 0 0 1 2 4 3 -0 0 1 4 8 8 11 12 5 7 6 7 6 10 6 9 9 8 10 12 9 8 7 7 8 8 8 8 7 9 8 8 8 8 7 6
7 7 7 6 5 4 3 2 1 1 1 0 1 3 6 3 -1 -0 2 5 5 5 5 8 7 10 7 8 9 9 8 10 12 9 7 9 10 7 6 6 6 6 6 7 10 8 9 8 7 8 8 7 6 5
8 7 7 6 5 4 3 2 1 1 0 2 4 5 2 -1 2 5 8 8 8 9 7 7 7 9 5 10 10 8 10 10 14 11 11 12 12 9 6 6 5 5 5 7 7 7 7 8 8 7 7 6 6 6
8 7 7 7 6 5 3 2 2 2 2 3 4 2 2 4 6 8 10 8 9 11 7 8 8 7 7 6 9 9 12 10 14 9 12 14 10 8 7 7 6 5 5 5 6 6 5 6 6 6 6 7 6 6
8 8 7 7 6 5 4 4 3 2 1 1 3 5 6 7 11 12 13 12 11 8 7 7 9 7 7 8 10 11 13 13 9 12 14 11 9 9 9 7 5 5 5 5 5 5 5 5 6 6 6 6 6 6
8 8 8 7 6 5 5 4 3 2 2 5 7 10 10 11 10 10 10 9 7 7 7 7 8 9 8 9 10 12 10 11 14 15 14 11 10 9 9 7 7 6 5 5 5 5 5 5 5 6 6 5 6 7
8 8 7 7 6 6 6 5 4 0 3 6 6 11 10 7 6 6 6 6 5 5 6 7 7 8 9 10 10 11 12 14 13 14 12 10 9 9 8 8 7 6 5 5 5 5 5 4 4 5 5 6 6 5
8 8 7 7 7 7 6 5 2 1 3 4 5 8 7 7 7 6 6 6 4 5 5 6 9 10 11 11 12 13 14 15 12 12 10 8 7 8 7 7 6 6 5 5 4 4 4 4 5 5 4 4 5 5
8 9 7 7 7 7 6 5 2 4 5 5 8 5 6 6 7 6 5 5 4 6 9 8 11 12 9 12 13 11 12 11 9 7 6 6 6 6 5 6 5 6 6 5 5 5 4 4 4 4 5 4 4 4
10 9 8 8 7 7 4 3 4 6 7 6 7 6 5 5 6 5 5 4 5 6 6 9 7 11 12 13 12 10 9 7 6 6 6 5 5 4 5 5 5 5 5 5 5 4 4 5 5 5 5 4 4 4
9 8 8 7 7 8 7 5 4 8 7 5 5 4 4 5 4 4 4 4 4 4 5 7 9 11 11 8 8 7 7 7 7 6 5 4 4 4 4 4 4 4 4 5 5 5 5 4 4 4 4 4 5 4
8 7 7 7 6 7 7 7 3 6 8 6 5 6 5 5 4 4 4 4 5 5 7 8 8 8 7 6 5 6 5 5 5 6 6 5 4 4 4 4 4 4 4 5 5 6 4 4 4 4 5 5 4 5
8 6 6 6 6 6 6 7 7 6 6 6 5 5 6 4 5 5 6 4 6 7 8 6 6 5 4 4 4 4 4 4 5 5 5 6 4 4 4 4 4 4 5 5 5 6 5 5 4 4 4 4 4 4
8 6 6 5 7 6 6 5 7 6 7 7 7 6 7 8 7 6 4 6 7 6 5 5 5 4 4 4 4 4 3 3 3 4 4 4 5 5 5 4 4 4 5 5 5 5 5 5 4 4 4 4 4 5
7 6 7 7 8 10 10 5 8 7 9 8 7 8 7 8 6 4 7 6 6 4 4 4 3 3 4 3 3 3 3 3 4 4 4 4 3 3 4 4 4 4 5 5 4 4 5 8 5 5 4 4 5 5
6 8 10 10 9 12 8 8 6 7 8 9 9 10 8 7 5 7 8 7 5 4 4 4 4 4 4 4 4 4 3 3 4 3 3 4 4 4 3 3 3 3 3 4 4 4 4 4 6 5 5 5 6 5
11 12 11 13 9 10 10 10 9 9 10 10 10 10 9 6 9 9 8 6 6 5 5 4 4 4 5 5 4 4 2 3 4 4 3 3 3 3 4 3 3 3 3 3 4 4 4 4 4 4 4 4 5 5
15 12 12 12 11 11 10 11 11 10 10 10 10 8 7 9 10 10 7 5 5 5 5 5 4 5 5 4 4 4 3 2 3 4 3 2 3 4 4 5 4 4 3 3 3 3 3 4 4 4 4 4 7 3
14 13 10 8 9 9 10 9 8 10 11 11 10 10 10 12 11 8 5 4 4 3 2 3 3 4 4 3 3 2 2 2 2 3 2 2 2 2 2 4 4 3 3 3 2 2 3 3 3 4 4 4 4 4
12 11 14 11 11 10 12 11 11 11 10 8 9 11 11 11 9 5 4 3 2 2 3 3 2 3 3 2 2 2 2 2 1 1 2 2 1 2 2 2 1 6 2 3 2 2 3 2 3 3 3 5 5 4
12 10 11 13 12 12 12 12 12 10 7 8 10 10 8 6 4 4 3 2 2 2 3 4 3 2 3 2 2 2 2 2 3 4 5 5 4 4 2 3 2 2 1 2 8 4 2 3 3 3 3 4 5 6
12 10 12 12 13 13 12 10 9 8 7 6 6 6 6 5 4 2 3 3 3 3 3 2 2 3 4 3 4 3 2 2 3 5 5 5 4 3 3 3 3 3 3 3 3 3 7 3 4 3 4 5 6 8
10 10 12 12 12 10 9 7 7 6 6 6 6 7 6 5 4 2 2 2 2 2 2 3 3 3 3 3 4 4 4 2 3 5 5 4 3 3 4 4 3 3 3 3 3 3 3 4 5 5 6 7 7 8
10 11 12 13 11 8 6 6 6 7 7 7 7 5 5 5 6 4 2 2 3 3 4 3 3 3 2 2 1 3 5 6 6 7 7 7 6 6 5 4 3 2 2 3 3 4 4 5 7 7 8 8 8 8
10 10 9 10 9 8 6 6 7 7 6 7 6 5 5 6 7 4 2 2 2 3 3 3 2 2 2 2 3 5 6 7 8 9 9 9 9 9 6 6 4 3 3 4 5 5 6 7 8 8 9 9 9 9